Weather in Novolugovoe

Russia / Novosibirsk Oblast     54°58′39″N   83°07′16″E
temp.,
°C
wind,
m/s
gust,
m/s
humid.,
%
clouds,
%
prec.,
mm/h
press.,
hPa
HPBL,
m
2 march, tue
tue201:00−13nne369598 0.7 1010180
04:00−14nne349695 0.1 1011106
07:00−16nne229694 0.3 101334
10:00−15n229481 0.1 1014135
13:00−12w228885 0.2 1015384
16:00−11wsw3389100 0.1 1015401
19:00−13wsw119599 0.1 101621
22:00−16sw119891 0.1 101620
3 march, wed
wed301:00−17wsw1110094 0.1 101720
04:00−18wsw1110099 0.1 101720
07:00−19sw129999 0.1 101820
10:00−16sw129488 0.1 1019167
13:00−13ssw349192 0.1 1020355
16:00−11ssw469199 0.0 1020422
19:00−13ssw359697 0.1 102191
22:00−14ssw4995100 0.1 1022206
4 march, thu
thu401:00−14s5129486 0.1 1022305
04:00−14s7149198 0.0 1021419
07:00−12s7149399 0.3 1021550
10:00−10s81487100 0.1 1020638
13:00−7ssw91588100 0.1 1020686
16:00−6ssw91494100 1.1 1018740
19:00−5ssw81593100 1.9 1018773
22:00−4ssw81686100 0.8 1017750
5 march, fri
fri501:00−6ssw71686100 0.8 1016584
04:00−7s71686100 0.0 1014499
07:00−7s71583100 0.0 1013454
10:00−6s71384100 0.0 1012592
13:00−5ssw71195100 1.6 1011722
16:00−4sw61094100 1.1 1012672
19:00−4wsw51290100 1.3 1016632
22:00−8sw7159123 0.0 1019503
6 march, sat
sat601:00−7ssw9188561 0.0 1020792
04:00−7ssw91688100 0.1 1018890
07:00−8ssw101789100 0.3 1018814
10:00−7sw101790100 0.1 1018846
13:00−6sw91490100 0.6 1018870
16:00−5sw91489100 0.1 1018861
19:00−6sw81490100 0.3 1018778
22:00−7sw61392100 0.1 1019642